{"data":{"norad_id":68393,"intl_designator":"2026-063P","name":"STARLINK-37184","alt_names":[],"object_type":"PAYLOAD","status":"ACTIVE","operator":null,"country":"US","launch_date":"2026-03-26","launch_site_code":"AFWTR","launch_vehicle":null,"mission":null,"orbit_class":"UNKNOWN","rcs_meters":null,"size_class":null,"mass_kg":null,"dimensions":null,"purposes":["comms"],"wikipedia_slug":null,"has_3d_model":false,"image_url":null,"decayed_at":null,"tle_current":{"epoch":"2026-09-19T08:19:19.195680Z","epoch_age_seconds":147465,"freshness":"FRESH","line1":"1 68393U 26063P   26262.34674995  .00015203  00000+0  47228-3 0  9997","line2":"2 68393  97.2854  43.2509 0000400  63.6421 296.4863 15.33445841 27572","mean_motion":15.33445841,"eccentricity":4.0e-5,"inclination_deg":97.2854,"raan_deg":43.2509,"arg_perigee_deg":63.6421,"mean_anomaly_deg":296.4863,"bstar":0.00047228,"rev_number":2757,"period_min":93.906153155102,"perigee_km":465.26692514808,"apogee_km":465.81441936186,"semimajor_km":6843.677672255,"source":"CELESTRAK","updated_at":"2026-09-20T09:00:43.896145Z"}}}